User: anonymous   Login
Location: Unspecified
(42.1900°N, 71.3291°W)
Time: 17:27:10
(UTC-05:00)
Language:

Resurs 1-4 Rocket - Orbit

View from above orbital plane
View from above orbital plane
View from above satellite
View from above satellite

Ground track
Ground track

The orbit data is extracted from the following two-line orbital elements,

1 25400U 98043G   17326.85487564  .00000006  00000-0  20358-4 0  9999
2 25400  98.5083 270.1436 0009620 185.3403 174.7676 14.25423499  7671
Epoch (UTC): 22 November 2017 20:31:01
Eccentricity: 0.0009620
inclination: 98.5083°
perigee height: 800 km
apogee height: 814 km
right ascension of ascending node: 270.1436°
argument of perigee: 185.3403°
revolutions per day: 14.25423499
mean anomaly at epoch: 174.7676°
orbit number at epoch: 767

The dashed part of the orbit path shows where the satellite is in the earth's shadow,  

DLR